User: anonymous   Login
Location: Unspecified
(0.0000°N, 0.0000°E)
Time: 00:18:23
(UTC+00:00)
Language:

FIREBIRD 3 - Orbit

View from above orbital plane
View from above orbital plane
View from above satellite
View from above satellite

Ground track
Ground track

The orbit data is extracted from the following two-line orbital elements,

1 40377U 15003B   17231.19748916 +.00003780 +00000-0 +16186-3 0  9992
2 40377 099.1219 067.7351 0136037 153.2020 207.6321 15.15606202140549
Epoch (UTC): 19 August 2017 04:44:23
Eccentricity: 0.0136037
inclination: 99.1219°
perigee height: 425 km
apogee height: 613 km
right ascension of ascending node: 67.7351°
argument of perigee: 153.2020°
revolutions per day: 15.15606202
mean anomaly at epoch: 207.6321°
orbit number at epoch: 14054

The dashed part of the orbit path shows where the satellite is in the earth's shadow,  

DLR